Location: Unspecified
(0.0000°N, 0.0000°E)
Time: 20:09:51
(UTC+00:00)

Altair 2 - Pass Details

Date: 10 November 2024
Orbit: 1017 x 1126 km, 90.0° (Epoch: 03 December)

Event Time Altitude Azimuth Distance (km) Brightness Sun altitude
Exits shadow 02:49:11 15° 180° (S) 2,594 10.9 -41.3°
Drops below altitude 10° 02:50:09 10° 181° (S) 2,948 11.2 -41.1°
Sets 02:52:42 0° 182° (S) 3,893 11.9 -40.5°
